Location: Chiroubles
(46.1812°N, 4.6660°E)
Time: 12:13:41
(UTC+00:00)

Tiros 1 despin weight - All Passes

Search period start: 30 November 2020 00:00
Search period end: 10 December 2020 00:00
Orbit: 593 x 642 km, 48.2° (Epoch: 29 November)

Date Brightness Start Highest point End Pass type
(mag) Time Alt. Az. Time Alt. Az. Time Alt. Az.
30 Nov - 09:49:58 10° SSE 09:52:11 13° SE 09:54:24 10° ESE daylight
30 Nov - 11:28:27 10° SW 11:32:58 51° SSE 11:37:31 10° ENE daylight
30 Nov - 13:09:48 10° W 13:14:30 75° N 13:19:12 10° ENE daylight
30 Nov - 14:51:37 10° WNW 14:56:20 76° N 15:01:01 10° E daylight
30 Nov - 16:33:19 10° WNW 16:37:50 48° SSW 16:42:17 10° SE visible
30 Nov - 18:16:44 10° WSW 18:18:34 12° SW 18:20:24 10° SSW visible
01 Dec - 10:04:31 10° SSW 10:08:12 24° SE 10:11:56 10° E daylight
01 Dec - 11:44:38 10° WSW 11:49:19 75° SSE 11:54:01 10° ENE daylight
01 Dec - 13:26:20 10° W 13:31:02 68° N 13:35:43 10° E daylight
01 Dec - 15:08:05 10° WNW 15:12:48 86° SSW 15:17:29 10° ESE daylight
01 Dec - 16:49:58 10° W 16:54:02 30° SW 16:58:04 10° SSE visible
02 Dec - 10:20:03 10° SW 10:24:22 39° SSE 10:28:43 10° E daylight
02 Dec - 12:01:03 10° WSW 12:05:45 83° NNW 12:10:28 10° ENE daylight
02 Dec - 13:42:52 10° WNW 13:47:34 70° N 13:52:15 10° E daylight
02 Dec - 15:24:32 10° WNW 15:29:12 62° SSW 15:33:48 10° SE daylight
02 Dec - 17:07:02 10° W 17:10:07 18° SW 17:13:12 10° S visible
03 Dec - 08:56:44 10° S 08:59:43 17° SE 09:02:44 10° E daylight
03 Dec - 10:36:03 10° SW 10:40:38 60° SSE 10:45:17 10° ENE daylight
03 Dec - 12:17:34 10° W 12:22:15 71° N 12:26:57 10° ENE daylight
03 Dec - 13:59:21 10° WNW 14:04:04 82° NNE 14:08:46 10° ESE daylight
03 Dec - 15:41:05 10° W 15:45:28 40° SSW 15:49:49 10° SE daylight
04 Dec - 09:11:49 10° SSW 09:15:48 29° SE 09:19:50 10° E daylight
04 Dec - 10:52:21 10° WSW 10:57:01 85° SSE 11:01:44 10° ENE daylight
04 Dec - 12:34:06 10° W 12:38:47 68° N 12:43:29 10° E daylight
04 Dec - 14:15:48 10° WNW 14:20:30 77° SSW 14:25:12 10° ESE daylight
04 Dec - 15:57:52 10° W 16:01:38 24° SW 16:05:22 10° SSE daylight
05 Dec - 07:49:39 10° SSE 07:51:17 12° SE 07:52:55 10° ESE daylight
05 Dec - 09:27:34 10° SW 09:32:00 47° SSE 09:36:30 10° ENE daylight
05 Dec - 11:08:48 10° W 11:13:29 77° N 11:18:12 10° ENE daylight
05 Dec - 12:50:37 10° WNW 12:55:19 74° N 13:00:01 10° E daylight
05 Dec - 14:32:17 10° WNW 14:36:51 52° SSW 14:41:24 10° SE daylight
05 Dec - 16:15:18 10° WSW 16:17:40 14° SW 16:20:01 10° SSW daylight
06 Dec - 08:03:48 10° S 08:07:17 21° SE 08:10:47 10° E daylight
06 Dec - 09:43:42 10° WSW 09:48:19 71° SSE 09:52:59 10° ENE daylight
06 Dec - 11:25:20 10° W 11:30:00 68° N 11:34:42 10° E daylight
06 Dec - 13:07:04 10° WNW 13:11:47 90° N 13:16:30 10° ESE daylight
06 Dec - 14:48:54 10° W 14:53:06 33° SW 14:57:15 10° SSE daylight
07 Dec - 08:19:13 10° SSW 08:23:24 35° SE 08:27:39 10° E daylight
07 Dec - 10:00:04 10° WSW 10:04:44 86° NNW 10:09:27 10° ENE daylight
07 Dec - 11:41:51 10° W 11:46:32 69° N 11:51:13 10° E daylight
07 Dec - 13:23:32 10° WNW 13:28:11 66° SSW 13:32:51 10° ESE daylight
07 Dec - 15:05:51 10° W 15:09:12 20° SW 15:12:32 10° S daylight
08 Dec - 06:56:11 10° S 06:58:48 15° SE 07:01:27 10° E daylight
08 Dec - 08:35:08 10° SW 08:39:39 56° SSE 08:44:14 10° ENE daylight
08 Dec - 10:16:34 10° W 10:21:14 72° N 10:25:55 10° ENE daylight
08 Dec - 11:58:21 10° WNW 12:03:03 79° NNE 12:07:45 10° E daylight
08 Dec - 13:40:03 10° WNW 13:44:29 43° SSW 13:48:56 10° SE daylight
08 Dec - 15:24:17 10° WSW 15:25:11 10° SW 15:26:04 10° SW daylight
09 Dec - 07:11:03 10° SSW 07:14:51 26° SE 07:18:43 10° E daylight
09 Dec - 08:51:23 10° WSW 08:56:00 81° SSE 09:00:42 10° ENE daylight
09 Dec - 10:33:06 10° W 10:37:45 68° N 10:42:27 10° E daylight
09 Dec - 12:14:48 10° WNW 12:19:29 81° SSW 12:24:12 10° ESE daylight
09 Dec - 13:56:46 10° W 14:00:40 27° SW 14:04:35 10° SSE daylight
